GFSMA_925_temp_231.txt.gz
Temp
22 21 21 21 22 22 22 23 23 23 23 22 21 21 21 21 21 21 21 21 21 21 20 20 20 20 20 20 20 20 21 21 20 20 21 21 21 20 20 20 20 20 21
21 21 21 21 21 22 23 23 23 23 24 24 23 22 21 21 22 22 21 20 21 21 21 20 20 20 20 20 20 20 20 21 21 20 21 21 21 20 20 20 20 21 21
21 21 21 22 22 22 23 23 23 24 24 24 22 23 22 22 21 23 21 22 21 21 21 20 20 20 20 20 20 20 21 21 21 21 21 21 21 21 21 21 21 21 20
21 21 21 22 22 21 23 23 23 23 24 24 24 24 23 22 22 23 22 21 22 22 21 21 20 20 20 20 20 20 21 21 21 21 21 21 21 21 21 21 21 21 21
21 21 21 22 22 22 23 23 23 23 24 24 23 25 24 24 24 23 22 22 23 22 22 21 20 20 20 20 20 20 21 21 21 21 21 21 22 21 21 21 21 21 21
22 22 21 22 22 22 22 23 23 23 23 23 23 24 24 24 23 24 22 22 23 23 23 23 22 21 21 20 20 20 20 21 21 21 21 22 22 21 21 22 22 22 22
23 21 21 22 22 22 22 23 23 23 23 23 24 24 25 24 24 24 23 23 23 23 23 23 23 22 22 21 20 20 20 21 21 21 21 22 22 22 22 22 22 21 21
22 21 21 21 22 22 22 23 23 23 23 24 22 23 20 23 24 23 24 24 23 23 24 23 23 23 23 22 21 20 20 21 21 21 21 21 22 22 22 23 22 22 22
21 21 22 21 21 21 22 22 23 23 24 23 22 21 19 20 21 24 24 24 24 24 23 23 24 23 23 22 22 21 20 21 21 21 22 22 22 22 22 22 22 22 22
22 21 21 21 21 21 22 23 23 23 23 23 22 22 22 22 20 20 24 25 25 24 24 24 23 24 23 23 23 23 24 23 22 22 22 22 22 22 22 22 22 22 22
22 22 21 21 21 21 22 22 23 23 24 23 24 23 21 21 21 19 19 22 25 25 23 24 24 24 23 24 24 24 24 24 23 23 23 22 21 21 22 22 22 22 22
22 22 22 22 21 21 22 22 22 23 24 24 24 23 22 22 20 20 18 20 21 24 24 25 25 24 23 23 24 25 25 24 24 23 23 23 22 21 21 22 22 22 22
22 23 22 22 21 21 22 22 22 23 23 23 24 24 25 24 24 23 21 20 20 22 24 24 25 25 24 24 23 24 25 25 24 24 23 23 22 22 21 21 21 20 21
24 23 23 23 22 22 22 22 22 23 23 24 24 24 24 24 24 24 23 21 19 20 21 23 24 25 26 25 23 23 23 24 25 24 24 24 23 22 22 21 21 21 21
24 24 23 23 23 23 22 22 22 23 24 24 24 24 24 25 25 24 23 24 23 20 19 24 24 24 24 23 24 24 24 24 25 26 24 24 24 23 22 22 22 22 22
25 24 24 23 23 23 23 23 23 23 23 24 24 25 24 25 25 25 24 24 23 24 21 25 26 25 24 24 24 26 25 24 23 25 24 24 24 24 24 24 23 23 23
24 24 24 24 23 23 23 23 23 23 23 24 24 24 24 25 25 25 25 25 25 25 23 25 25 24 24 25 25 25 26 23 24 24 24 24 24 24 24 24 24 24 24
24 24 24 23 23 23 23 23 23 23 24 24 24 24 24 24 24 25 25 25 25 25 25 25 25 24 25 26 25 24 25 24 24 25 25 25 25 24 24 24 24 24 24
24 23 23 23 23 23 23 23 23 23 23 23 23 24 24 24 24 24 25 24 25 25 25 24 24 24 25 25 25 24 24 25 25 26 25 25 25 26 25 25 25 24 23
23 23 23 23 23 23 23 23 23 23 23 23 23 23 23 23 23 24 24 24 24 24 25 24 24 24 25 25 24 24 25 25 26 26 26 25 25 25 25 25 25 25 24
22 22 22 22 23 23 23 23 23 23 23 22 22 22 23 23 23 23 23 23 23 24 24 23 23 23 23 24 24 25 26 26 26 26 25 25 25 26 25 25 25 25 24
21 21 21 21 22 22 22 22 22 22 22 22 22 22 23 23 23 23 23 23 23 23 23 23 23 22 22 23 24 24 24 24 22 25 25 25 24 26 26 26 26 25 23
20 20 20 21 21 21 21 21 21 21 21 21 22 22 22 22 22 22 23 23 23 23 23 22 22 22 22 22 23 24 24 24 24 25 25 24 24 24 26 26 26 24 23
19 19 19 19 19 19 19 20 20 20 20 21 21 21 21 21 22 22 22 22 22 22 22 22 22 23 23 22 22 23 24 24 24 24 24 22 24 24 25 25 26 25 25
18 18 17 18 18 19 19 19 19 19 19 19 20 20 21 21 21 22 22 21 22 22 22 22 22 22 22 22 22 21 21 21 22 22 23 23 23 24 24 25 26 26 26
17 17 17 18 18 19 18 18 18 18 18 19 20 20 20 20 21 20 19 19 19 19 20 21 21 22 22 22 22 22 21 19 21 21 23 22 23 23 22 24 25 26 25

GFSMA_925_temp_234.txt.gz
Temp
22 21 21 22 22 21 22 22 22 22 22 22 22 22 22 22 21 21 20 21 21 21 20 20 20 20 20 20 20 20 20 20 20 20 20 20 21 21 20 20 20 20 20
21 22 21 21 21 22 22 22 23 23 23 24 23 22 22 21 21 21 20 20 20 21 20 20 20 20 20 20 20 20 20 20 20 20 21 21 21 21 20 20 20 21 21
21 21 21 21 22 22 22 22 22 23 23 22 22 23 23 22 22 21 21 20 20 20 20 20 20 20 20 20 20 19 20 20 21 20 20 21 21 20 20 20 21 21 21
21 21 21 21 22 22 21 22 23 23 22 22 23 23 22 22 23 22 21 21 20 20 20 20 20 20 20 20 20 20 20 21 21 21 21 21 21 21 20 21 21 21 21
21 21 21 22 22 22 22 22 22 23 22 23 23 23 22 22 23 23 23 21 21 21 21 21 21 20 20 20 20 20 20 21 21 21 21 21 21 22 21 21 21 21 21
21 21 21 22 22 23 22 22 22 22 23 23 23 23 23 23 23 22 22 22 21 21 21 22 22 21 20 20 20 20 20 20 21 21 21 21 21 21 21 21 21 21 21
21 21 21 21 22 22 22 22 22 23 23 23 22 23 23 22 23 23 23 22 22 21 21 22 22 21 21 21 20 20 20 20 21 21 21 21 21 21 21 21 21 22 22
22 22 21 21 22 22 22 22 22 22 23 23 22 21 19 21 21 21 21 21 23 22 22 22 22 22 22 21 21 20 20 20 21 20 21 21 21 21 21 21 21 21 22
22 21 21 21 22 21 22 22 22 23 22 21 22 21 20 20 19 21 21 21 22 23 23 23 22 22 22 22 22 21 20 20 20 21 21 22 22 22 21 21 21 22 22
22 21 21 21 21 21 21 21 22 23 22 22 21 22 23 21 20 20 21 22 23 23 23 23 23 23 23 22 22 22 22 21 21 21 21 21 22 22 22 22 22 22 22
22 21 22 21 21 21 21 21 22 22 22 22 22 21 21 21 20 19 20 21 22 24 23 24 24 23 23 23 23 22 22 23 23 24 24 24 23 23 23 22 22 22 22
22 22 21 21 21 21 21 22 22 22 23 23 23 23 22 20 20 20 18 20 21 22 23 24 24 24 24 24 24 24 23 23 23 24 23 23 23 23 22 22 22 22 22
22 23 22 21 21 21 21 21 21 22 22 23 23 23 23 23 22 22 21 20 20 23 23 23 23 23 24 23 24 24 24 24 23 23 24 23 23 23 22 21 21 21 21
23 23 22 22 22 22 21 21 21 22 22 23 23 23 23 24 23 23 23 21 19 19 22 24 24 24 24 23 23 23 24 24 24 24 23 23 23 23 23 22 21 20 20
24 24 23 23 22 22 22 22 21 22 22 23 23 23 24 24 24 24 23 23 22 20 19 25 24 25 25 24 23 23 23 24 24 24 24 24 23 23 23 22 22 21 21
24 23 24 23 23 23 22 22 22 22 22 23 23 23 24 24 24 24 24 23 22 21 19 23 25 25 25 25 24 24 23 23 24 24 25 25 24 23 24 23 23 22 22
24 24 24 23 23 23 23 23 23 23 23 23 23 23 23 24 24 24 24 24 24 22 20 22 24 25 24 25 24 25 24 23 24 26 25 26 25 24 24 24 23 23 23
23 23 23 23 23 23 23 23 23 23 23 23 23 23 23 24 24 24 24 24 23 23 23 22 24 24 25 25 25 25 25 25 26 25 25 25 25 25 24 24 23 23 23
23 23 23 23 23 23 23 23 23 23 23 23 23 23 23 23 23 23 24 24 24 24 23 23 23 24 24 24 24 24 24 25 25 25 25 25 25 25 25 25 24 24 23
22 22 22 22 22 23 23 23 22 22 22 22 23 23 23 22 23 23 23 23 23 23 23 22 22 23 23 24 24 23 24 25 25 26 25 26 25 25 25 25 25 24 24
21 21 21 21 21 22 22 21 22 22 22 22 22 22 22 22 22 22 22 23 23 23 23 22 21 22 21 22 23 24 23 24 24 24 24 24 25 25 25 25 25 25 25
20 20 20 20 20 21 20 20 21 21 21 21 22 22 22 22 22 22 22 22 21 21 21 21 21 20 21 22 23 23 23 22 21 24 25 25 25 25 25 25 25 25 25
19 19 19 19 19 19 19 19 19 19 20 20 20 21 21 21 21 21 21 22 22 22 22 21 21 21 21 21 22 22 22 22 22 24 24 24 24 24 25 25 25 24 25
18 18 18 18 18 18 19 19 19 19 19 19 19 20 20 20 20 20 20 21 21 21 21 21 21 22 22 22 21 21 21 20 20 22 23 21 23 23 24 24 24 25 25
17 17 17 17 18 18 18 17 17 17 18 18 18 19 19 19 19 19 18 18 19 20 20 20 20 20 21 21 21 20 19 19 19 20 21 21 22 23 23 23 24 25 25
17 17 17 17 18 17 17 17 17 17 17 17 17 17 17 17 17 17 17 16 17 18 19 20 20 21 21 21 21 21 21 19 19 20 21 20 21 21 21 23 24 25 25

GFSMA_925_temp_237.txt.gz
Temp
21 21 21 21 22 21 21 21 22 22 23 22 22 22 21 21 20 21 21 20 20 21 21 20 20 20 20 20 20 20 19 19 20 20 20 20 20 20 20 20 20 20 20
21 21 21 21 21 21 21 21 22 22 23 23 22 22 22 21 20 21 21 20 20 20 20 20 20 20 20 20 20 19 19 19 20 20 20 20 21 21 20 20 20 20 20
21 21 21 21 21 21 21 22 22 22 22 22 22 22 21 20 20 20 20 20 20 20 20 20 20 20 20 20 20 20 20 20 20 20 21 21 21 21 20 20 20 20 21
21 21 21 21 21 21 21 22 22 23 22 23 23 22 22 21 21 20 20 20 20 20 20 20 20 20 19 20 20 19 20 20 21 20 21 20 21 21 21 21 21 21 21
21 21 20 21 21 21 21 22 22 22 22 23 22 23 23 22 22 20 20 20 20 20 20 20 20 20 19 20 20 20 20 20 21 21 21 21 21 21 21 21 21 21 21
22 22 21 21 21 21 22 22 22 22 22 22 22 22 23 23 22 22 22 21 21 20 20 20 20 19 20 20 20 20 20 20 21 21 21 21 21 21 21 21 21 21 21
22 21 21 21 21 21 22 22 22 22 22 22 22 22 22 22 22 22 23 22 22 21 21 21 21 20 20 21 20 20 20 20 20 21 20 21 21 21 21 22 21 21 21
22 22 21 21 21 21 22 22 22 22 22 22 21 20 19 21 22 22 22 22 22 22 21 21 21 21 21 21 20 20 20 20 20 20 21 20 21 21 22 22 22 21 21
22 21 21 21 21 21 21 22 22 22 22 22 21 21 19 20 19 21 21 21 21 21 21 21 21 22 22 21 21 21 20 20 20 20 20 21 21 21 22 22 23 23 22
22 22 21 21 21 21 21 21 22 22 21 22 21 21 21 21 19 19 21 20 21 21 22 22 22 22 22 22 22 22 22 20 20 20 20 20 20 21 22 22 22 22 23
22 22 22 21 21 21 21 21 21 21 22 21 22 21 21 20 20 19 20 20 22 22 22 23 23 23 23 23 23 22 22 22 21 21 21 21 21 21 22 22 22 22 23
22 22 22 21 21 20 21 21 21 21 21 22 21 21 21 21 20 19 18 19 20 23 23 23 23 24 23 23 23 23 23 23 23 22 21 20 21 21 21 22 21 21 21
22 22 22 22 21 21 21 21 21 21 21 22 22 22 22 22 21 21 20 19 18 21 22 23 23 24 24 23 24 24 24 23 23 23 23 23 21 21 22 22 21 21 21
24 23 22 22 22 21 21 21 21 21 21 22 22 22 22 23 22 22 22 20 18 19 21 23 24 24 23 23 24 24 23 23 24 23 23 23 24 23 23 22 22 21 21
24 24 23 23 22 21 21 21 21 21 21 22 22 22 22 23 23 22 22 21 21 19 18 23 23 25 24 23 23 23 23 23 23 23 23 23 23 24 24 24 23 22 22
24 24 23 23 23 22 22 21 21 21 21 21 22 22 22 23 23 23 22 22 21 21 18 22 23 24 24 24 24 23 23 23 22 22 23 23 24 24 24 24 24 23 22
23 24 23 23 23 23 22 22 22 22 21 22 22 22 22 23 23 23 23 23 21 21 19 21 22 24 24 24 24 23 23 24 23 22 22 23 23 24 24 24 24 24 23
22 22 22 22 22 22 22 22 22 22 22 22 22 22 22 23 23 23 23 23 23 22 21 20 22 23 24 24 24 24 23 23 23 23 24 24 24 23 23 24 24 24 24
22 22 22 22 22 22 22 22 22 22 22 22 22 22 22 22 22 23 22 22 22 22 22 21 21 22 23 23 23 24 24 24 24 25 24 24 24 24 25 25 25 24 24
21 21 21 21 22 22 21 22 22 22 22 22 22 22 22 22 22 22 22 22 22 22 22 21 21 21 22 23 22 22 23 24 25 25 25 25 25 25 25 25 25 25 25
20 20 20 21 21 20 20 21 21 21 21 21 21 21 21 21 21 21 21 21 21 20 20 20 20 20 20 21 22 22 22 22 23 23 24 25 25 25 25 25 25 25 25
19 19 19 19 19 19 19 19 20 20 21 21 21 21 21 21 21 21 21 21 21 21 21 19 19 19 20 21 21 21 21 20 20 23 23 24 24 24 25 25 25 25 25
18 18 18 18 18 18 18 18 19 19 19 19 19 20 20 20 20 20 20 20 20 20 20 20 19 19 20 20 20 20 20 20 19 21 20 20 22 23 24 24 24 25 25
17 17 17 17 18 17 17 18 18 18 18 18 18 18 18 19 18 19 19 19 19 20 20 20 19 19 20 20 20 20 20 20 20 20 20 19 21 22 23 23 24 24 24
16 16 16 16 16 16 16 16 17 17 17 17 17 16 17 17 16 17 17 17 18 19 19 19 19 19 19 20 20 19 19 18 19 19 20 20 20 21 21 22 23 24 24
16 16 16 16 15 15 15 15 14 15 15 15 16 15 15 15 16 16 16 16 16 17 18 19 20 20 20 20 21 20 20 18 19 19 20 19 20 21 20 22 22 23 24

GFSMA_925_temp_240.txt.gz
Temp
21 21 21 21 20 21 21 21 21 22 22 22 21 21 21 21 21 21 21 21 20 21 20 20 20 20 20 20 20 20 19 20 20 20 20 20 20 20 20 20 20 20 20
21 21 21 21 21 21 21 21 22 23 23 23 22 22 21 21 20 20 21 20 21 21 20 20 20 20 20 20 20 20 20 19 20 20 20 20 20 21 21 20 20 20 20
20 20 21 21 21 21 21 21 21 23 23 22 22 22 21 21 21 20 20 20 20 21 20 19 20 20 20 20 20 20 20 20 20 20 20 21 21 21 21 20 20 20 20
20 20 20 21 20 21 21 21 22 22 22 21 21 21 21 21 20 20 20 20 20 20 20 20 20 20 19 20 20 20 20 20 20 20 21 21 21 21 21 21 21 21 21
21 20 21 21 20 21 21 22 21 22 22 21 22 21 21 21 20 20 20 20 20 20 20 20 20 20 20 20 20 20 20 20 20 20 20 20 21 21 22 22 21 21 21
22 21 21 20 21 21 21 21 21 22 22 22 22 21 21 21 20 20 21 20 20 20 20 20 20 20 20 19 20 20 20 20 20 20 21 20 21 21 21 21 22 21 21
22 21 21 21 21 21 21 21 21 21 21 21 21 21 21 21 21 20 21 20 20 20 20 20 20 20 20 20 20 20 20 20 20 21 21 21 20 21 21 21 21 22 21
22 22 21 21 21 21 21 21 21 21 21 22 21 20 20 21 21 21 21 21 20 20 20 20 20 20 20 20 20 20 20 20 20 20 20 21 20 20 21 21 21 22 22
22 22 22 21 21 21 21 21 21 21 21 21 22 21 20 21 19 20 21 21 21 20 21 21 21 21 21 21 21 20 20 20 20 20 20 20 21 20 20 21 21 21 22
22 22 21 21 21 21 21 21 21 21 21 21 21 21 20 21 20 21 21 21 21 21 22 21 22 21 21 21 21 21 21 21 21 21 20 20 21 21 22 22 21 21 21
22 22 21 21 21 21 21 21 20 20 21 20 21 21 20 20 20 20 20 20 21 22 22 22 23 23 22 22 22 22 22 22 21 21 21 20 20 20 21 22 22 22 22
22 22 21 21 21 21 21 21 21 20 21 21 21 21 21 21 20 19 19 19 20 23 23 23 23 23 24 24 23 23 23 23 22 22 21 21 21 20 20 20 20 20 21
22 22 22 22 21 21 21 21 21 21 21 21 21 21 20 21 21 21 20 19 19 21 23 23 24 24 24 23 23 23 23 23 23 23 22 22 22 22 22 21 20 21 21
23 22 22 22 22 21 21 20 21 21 21 21 21 22 21 21 21 21 22 21 20 19 21 23 24 24 24 24 24 24 23 23 23 23 23 22 23 23 22 22 23 23 22
24 23 23 22 22 22 21 21 21 21 21 21 21 21 21 22 21 22 21 21 21 20 20 22 23 24 23 23 24 24 23 23 23 23 23 23 22 22 22 22 22 22 22
24 24 23 23 22 22 21 21 21 21 21 21 21 21 22 22 22 22 22 21 21 21 20 22 23 23 24 24 24 24 24 24 24 24 23 22 22 23 23 23 23 23 23
23 23 23 22 22 22 22 22 21 21 21 21 21 21 22 22 22 22 22 22 21 20 19 21 22 23 23 24 24 24 24 24 24 24 23 23 22 23 23 23 23 23 23
22 22 22 22 22 22 22 21 22 21 22 22 22 21 22 22 22 22 22 22 22 21 20 20 21 22 23 23 23 23 24 24 24 24 24 23 24 24 24 24 23 23 23
22 22 22 22 21 21 21 21 21 22 22 22 22 21 21 21 22 22 22 22 22 21 21 19 20 21 21 22 22 22 23 23 23 24 24 24 24 24 24 24 24 24 24
21 21 21 21 21 21 21 21 21 21 21 21 21 21 21 21 21 21 21 21 21 21 20 20 19 19 20 22 21 21 22 23 23 23 23 23 24 24 24 24 24 25 25
20 20 20 20 20 20 20 20 20 21 21 21 21 21 21 20 20 20 20 21 20 20 20 19 19 19 19 20 20 21 20 21 21 22 23 24 24 24 24 24 24 25 25
19 19 19 19 18 18 18 19 19 20 20 20 20 20 20 20 20 20 20 20 20 20 20 19 19 19 19 20 20 20 20 19 20 21 21 22 22 22 23 24 24 24 24
18 18 18 18 17 17 18 18 18 18 18 18 18 18 19 19 19 19 19 19 19 19 19 19 18 18 19 20 20 19 19 19 19 20 20 19 20 21 23 23 24 24 24
17 17 16 16 16 16 16 17 17 17 17 17 17 17 17 18 17 17 18 18 18 19 19 18 18 18 19 19 18 18 19 18 18 19 19 19 20 20 22 22 23 23 23
16 16 16 15 15 15 15 16 16 16 16 16 16 16 16 15 15 15 16 16 17 18 18 18 18 18 19 19 19 18 18 17 18 19 19 18 20 20 20 21 22 23 23
15 15 15 14 14 14 14 15 15 15 15 15 16 15 15 15 15 15 15 15 16 17 17 18 19 19 19 19 19 18 18 17 18 19 19 19 20 20 21 21 21 21 22

GFSMA_925_temp_246.txt.gz
Temp
23 23 22 21 21 22 23 23 23 22 22 22 22 23 23 23 22 23 22 21 21 22 22 21 20 20 20 20 20 20 20 20 20 20 20 20 20 20 20 20 20 20 20
22 22 21 21 23 23 23 24 22 22 22 21 22 23 22 22 21 21 23 21 21 22 21 21 21 21 20 20 20 20 20 20 20 20 20 20 20 20 20 20 21 21 21
22 21 21 22 23 22 22 23 22 22 21 22 22 23 22 22 21 21 21 23 21 21 21 20 20 20 20 20 20 20 20 20 20 20 20 20 20 20 20 20 20 20 21
21 21 21 22 23 23 23 24 22 22 22 22 23 24 23 22 22 21 21 21 23 22 21 20 20 20 20 20 20 20 20 20 20 20 20 21 21 20 20 20 20 20 20
21 21 22 23 22 23 23 24 23 22 23 22 23 24 24 23 22 22 22 22 22 22 23 22 21 21 20 20 20 20 20 20 21 21 20 20 21 21 21 21 21 20 20
21 21 22 22 22 23 24 24 22 23 23 23 25 24 23 24 23 22 22 22 21 21 22 22 21 21 21 20 20 20 20 20 20 21 21 21 20 21 21 21 21 21 20
22 22 22 21 22 23 23 23 22 22 25 25 25 23 23 23 22 22 23 22 22 22 23 22 21 23 22 21 20 20 20 20 20 21 21 21 21 21 21 21 21 21 21
22 21 21 21 21 24 22 22 23 22 25 25 24 23 23 24 23 23 22 23 23 23 23 24 23 22 23 22 22 21 21 20 20 20 21 21 21 21 21 21 21 21 21
22 21 21 21 21 22 24 22 22 23 24 24 23 24 24 25 24 24 23 24 24 22 24 24 24 24 23 24 23 22 22 21 21 21 20 21 21 21 21 21 21 21 21
22 21 21 21 21 22 24 23 23 23 23 23 23 24 24 25 24 25 24 24 25 23 25 24 24 24 23 23 23 23 23 22 22 21 21 20 20 21 21 21 21 21 21
21 21 21 22 21 22 23 23 24 22 24 24 24 24 23 24 25 25 25 23 25 25 25 25 25 25 24 24 24 23 22 22 22 22 22 22 21 21 21 21 21 21 21
23 23 22 22 22 21 22 23 23 23 23 24 25 24 24 23 24 25 28 26 27 27 25 25 25 26 25 25 24 24 23 23 22 22 22 22 22 21 21 21 21 21 21
22 22 22 22 22 22 21 22 22 23 23 24 24 24 24 25 25 26 27 28 29 27 27 26 25 26 26 25 25 24 23 23 23 23 23 23 22 22 22 21 21 21 21
23 23 23 23 23 22 22 22 23 23 24 23 23 24 23 24 25 26 27 27 26 26 27 27 27 26 26 25 25 24 24 23 23 23 23 23 23 22 22 22 22 21 21
23 23 23 23 23 22 22 22 22 23 24 23 24 24 24 23 25 26 26 26 28 26 25 25 28 26 26 26 25 24 24 23 23 24 24 23 23 23 23 23 22 22 22
24 22 23 23 23 23 22 22 22 23 23 24 24 24 24 25 25 26 26 26 26 27 29 27 26 26 26 25 25 24 24 24 23 24 24 24 24 24 23 23 23 22 22
23 23 23 23 22 22 22 22 22 23 23 23 24 24 23 24 25 26 25 25 26 26 27 28 28 27 24 24 25 25 24 25 25 25 24 24 24 24 24 23 23 22 22
23 23 23 22 22 22 22 22 22 23 22 22 23 23 24 23 24 24 24 25 26 26 26 27 27 27 25 25 24 24 25 26 27 27 25 24 24 24 24 24 23 22 22
23 24 23 23 23 22 22 22 22 22 22 22 22 22 23 22 22 23 22 23 23 23 23 23 25 25 25 26 25 25 25 25 25 26 25 25 25 25 24 24 24 24 24
22 22 22 22 22 22 22 22 23 23 23 23 22 22 22 22 22 21 21 22 21 21 21 21 22 22 22 23 22 22 23 23 23 26 26 26 25 25 24 24 24 24 24
21 21 22 22 22 22 22 20 22 22 22 23 23 22 22 20 21 21 22 21 21 22 21 21 22 23 24 24 22 21 21 23 23 23 24 24 25 25 25 25 25 25 25
20 20 21 21 21 22 18 19 20 21 21 21 22 22 21 21 21 20 20 20 20 21 22 23 25 26 25 24 25 25 25 25 26 26 26 26 26 26 26 26 26 25 24
19 19 19 20 19 18 17 18 19 21 21 21 20 21 21 22 20 20 20 19 20 20 20 20 21 22 23 23 22 22 23 23 23 24 24 25 25 25 25 26 25 25 24
19 19 19 18 18 15 17 17 18 19 20 19 19 19 19 18 16 15 17 19 20 20 20 20 21 20 21 20 19 20 20 20 21 22 23 23 24 24 25 26 25 24 24
18 19 18 17 17 15 16 17 17 18 19 19 18 18 16 17 15 16 16 17 18 19 20 19 18 18 18 18 18 18 20 22 23 24 25 25 25 25 25 25 26 26 24
19 18 17 16 15 15 16 16 16 18 19 19 18 18 16 14 14 14 15 16 18 19 19 18 18 19 19 18 19 18 19 21 22 24 24 23 24 24 24 24 25 25 24